HFM481F SLLP-UUEE

Flight info

Callsign HFM481F
Flight time N/A
Altitude 35000
Route BOKAP UL309 GRAFO/N0489F340 UL309 KOTOM/N0481F360 UL309 GEDOV/N0485F350 UM527 DIVRA/N0476F370 UM527 TRAPP DCT 13N052W 18N049W/M082F370 22N045W/M082F390 26N041W 30N037W 34N032W 38N027W 42N022W 45N015W/M082F410 DCT LASNO/N0473F410 DCT AMPOP DCT SIDDI DCT ENHAQ M197 REDFA L620 TULIP Y12 SPY N873 ANDIK M105 OPWOT Z612 WSN L23 BINKA DCT BEZMI/N0470F390 L733 RANOK/K0872F410 L983 KRAKI DCT PODIL M997 RATIN L999 AGLAN M864 DIPOP DIPOP3F
Aircraft A343/H-SDE2E3FGHIJ4J5M1RWXY/LB1D1G1

Departure

Time 2026-05-06 21:25
Airport El Alto International Airport (SLLP)

Arrival

Time N/A
Airport Sheremetyevo International Airport (UUEE)
Time Latitude Longitude Altitude Speed Heading
2026-05-06 21:10 -16.50960 -68.17725 13339 ft 0 kts 26°
2026-05-06 21:18 -16.50961 -68.17726 13339 ft 2 kts 26°
2026-05-06 21:18 -16.50981 -68.17740 13337 ft 4 kts 51°
2026-05-06 21:19 -16.50993 -68.17764 13337 ft 4 kts 82°
2026-05-06 21:19 -16.50994 -68.17792 13337 ft 4 kts 94°
2026-05-06 21:19 -16.50993 -68.17806 13337 ft 0 kts 91°
2026-05-06 21:21 -16.50993 -68.17797 13337 ft 6 kts 91°
2026-05-06 21:21 -16.51011 -68.17721 13340 ft 10 kts 119°
2026-05-06 21:21 -16.51044 -68.17662 13339 ft 9 kts 120°
2026-05-06 21:22 -16.51096 -68.17588 13337 ft 18 kts 130°
2026-05-06 21:22 -16.51181 -68.17485 13337 ft 18 kts 131°
2026-05-06 21:22 -16.51263 -68.17389 13331 ft 17 kts 137°
2026-05-06 21:22 -16.51369 -68.17360 13331 ft 14 kts 181°
2026-05-06 21:23 -16.51392 -68.17377 13331 ft 1 kts 252°
2026-05-06 21:23 -16.51391 -68.17383 13330 ft 0 kts 269°
2026-05-06 21:23 -16.51390 -68.17521 13327 ft 38 kts 272°
2026-05-06 21:24 -16.51372 -68.17932 13322 ft 75 kts 273°
2026-05-06 21:24 -16.51353 -68.18603 13299 ft 109 kts 271°
2026-05-06 21:24 -16.51327 -68.19501 13274 ft 139 kts 272°
2026-05-06 21:24 -16.51290 -68.20618 13186 ft 169 kts 271°
2026-05-06 21:25 -16.51245 -68.21896 13249 ft 181 kts 271°
2026-05-06 21:25 -16.51147 -68.23253 13300 ft 194 kts 282°
2026-05-06 21:25 -16.50477 -68.24466 13663 ft 198 kts 309°
2026-05-06 21:25 -16.49595 -68.25624 13957 ft 206 kts 304°
2026-05-06 21:26 -16.48713 -68.26818 14228 ft 212 kts 307°
2026-05-06 21:26 -16.47790 -68.28067 14333 ft 225 kts 307°
2026-05-06 21:26 -16.46807 -68.29402 14404 ft 240 kts 307°
2026-05-06 21:26 -16.45772 -68.30825 14514 ft 251 kts 307°
2026-05-06 21:27 -16.44705 -68.32306 14651 ft 262 kts 307°
2026-05-06 21:27 -16.43588 -68.33879 14693 ft 279 kts 306°
2026-05-06 21:27 -16.42406 -68.35559 14770 ft 298 kts 306°
2026-05-06 21:27 -16.41135 -68.37357 14817 ft 317 kts 306°
2026-05-06 21:28 -16.39805 -68.39225 15107 ft 324 kts 307°
2026-05-06 21:28 -16.38432 -68.41095 15554 ft 326 kts 307°
2026-05-06 21:28 -16.37050 -68.42974 15993 ft 328 kts 307°
2026-05-06 21:28 -16.35683 -68.44845 16239 ft 330 kts 306°
2026-05-06 21:29 -16.34277 -68.46778 16698 ft 331 kts 306°
2026-05-06 21:29 -16.32884 -68.48697 17152 ft 333 kts 306°
2026-05-06 21:29 -16.31483 -68.50631 17646 ft 335 kts 306°
2026-05-06 21:29 -16.30096 -68.52546 18103 ft 337 kts 305°
2026-05-06 21:30 -16.28648 -68.54545 18352 ft 347 kts 306°
2026-05-06 21:30 -16.27038 -68.56471 18530 ft 356 kts 317°
2026-05-06 21:30 -16.25066 -68.57983 19149 ft 349 kts 331°
2026-05-06 21:30 -16.22890 -68.58954 19736 ft 344 kts 342°
2026-05-06 21:31 -16.20593 -68.59651 20120 ft 344 kts 344°
2026-05-06 21:31 -16.18263 -68.60300 20426 ft 350 kts 343°
2026-05-06 21:31 -16.15881 -68.60962 20609 ft 358 kts 343°
2026-05-06 21:31 -16.13449 -68.61643 20787 ft 366 kts 343°
2026-05-06 21:32 -16.10961 -68.62344 20960 ft 374 kts 344°
2026-05-06 21:32 -16.05797 -68.63803 21187 ft 396 kts 343°
2026-05-06 21:32 -16.03104 -68.64565 21239 ft 407 kts 343°
2026-05-06 21:33 -16.00337 -68.65349 21292 ft 418 kts 343°
2026-05-06 21:33 -15.97499 -68.66152 21336 ft 428 kts 344°
2026-05-06 21:33 -15.94596 -68.66973 21392 ft 438 kts 344°
2026-05-06 21:33 -15.91621 -68.67814 21459 ft 447 kts 344°
2026-05-06 21:34 -15.88601 -68.68667 21654 ft 451 kts 343°
2026-05-06 21:34 -15.85580 -68.69520 22143 ft 449 kts 344°
2026-05-06 21:34 -15.82568 -68.70371 22522 ft 449 kts 344°
2026-05-06 21:34 -15.79540 -68.71227 22862 ft 451 kts 344°
2026-05-06 21:35 -15.76505 -68.72053 23198 ft 452 kts 346°
2026-05-06 21:35 -15.73370 -68.72438 23453 ft 457 kts 360°
2026-05-06 21:35 -15.70221 -68.71986 23773 ft 461 kts 14°
2026-05-06 21:35 -15.67186 -68.70868 24020 ft 464 kts 20°
2026-05-06 21:36 -15.64193 -68.69595 24253 ft 466 kts 21°
2026-05-06 21:36 -15.61190 -68.68304 24509 ft 468 kts 21°
2026-05-06 21:36 -15.58185 -68.67020 24860 ft 467 kts 21°
2026-05-06 21:36 -15.55177 -68.65742 25135 ft 468 kts 21°
2026-05-06 21:37 -15.52152 -68.64460 25344 ft 471 kts 21°
2026-05-06 21:37 -15.49113 -68.63175 25597 ft 473 kts 21°
2026-05-06 21:37 -15.46062 -68.61887 25841 ft 475 kts 21°
2026-05-06 21:37 -15.42998 -68.60594 26074 ft 476 kts 21°
2026-05-06 21:38 -15.39925 -68.59298 26211 ft 478 kts 21°
2026-05-06 21:38 -15.36839 -68.57997 26468 ft 479 kts 21°
2026-05-06 21:38 -15.33747 -68.56694 26706 ft 481 kts 21°
2026-05-06 21:38 -15.30644 -68.55387 26956 ft 483 kts 21°
2026-05-06 21:39 -15.27525 -68.54075 27199 ft 484 kts 21°
2026-05-06 21:39 -15.24404 -68.52761 27491 ft 484 kts 21°
2026-05-06 21:39 -15.21285 -68.51448 27772 ft 485 kts 20°
2026-05-06 21:39 -15.18156 -68.50132 27992 ft 487 kts 21°
2026-05-06 21:40 -15.15011 -68.48806 28177 ft 489 kts 21°
2026-05-06 21:40 -15.11860 -68.47482 28377 ft 490 kts 20°
2026-05-06 21:40 -15.08692 -68.46152 28578 ft 492 kts 20°
2026-05-06 21:40 -15.05520 -68.44821 28837 ft 492 kts 20°
2026-05-06 21:41 -15.02355 -68.43492 29148 ft 491 kts 20°
2026-05-06 21:41 -14.99187 -68.42163 29463 ft 491 kts 20°
2026-05-06 21:41 -14.96022 -68.40835 29770 ft 490 kts 20°
2026-05-06 21:41 -14.92863 -68.39510 30059 ft 490 kts 20°
2026-05-06 21:42 -14.89701 -68.38184 30294 ft 489 kts 21°
2026-05-06 21:42 -14.86549 -68.36863 30527 ft 489 kts 21°
2026-05-06 21:42 -14.83395 -68.35541 30781 ft 489 kts 21°
2026-05-06 21:42 -14.80249 -68.34223 31016 ft 488 kts 20°
2026-05-06 21:43 -14.77099 -68.32903 31253 ft 487 kts 20°
2026-05-06 21:43 -14.73963 -68.31590 31494 ft 487 kts 20°
2026-05-06 21:43 -14.70827 -68.30277 31718 ft 486 kts 20°
2026-05-06 21:43 -14.67692 -68.28965 31933 ft 486 kts 20°
2026-05-06 21:44 -14.65619 -68.28098 32086 ft 485 kts 20°
2026-05-06 21:44 -14.62486 -68.26788 32288 ft 485 kts 20°
2026-05-06 21:44 -14.59364 -68.25483 32510 ft 485 kts 20°
2026-05-06 21:44 -14.56239 -68.24177 32686 ft 484 kts 20°
2026-05-06 21:45 -14.53113 -68.22871 32861 ft 485 kts 20°
2026-05-06 21:45 -14.48970 -68.21140 33105 ft 485 kts 20°
2026-05-06 21:45 -14.46857 -68.20258 33242 ft 484 kts 20°
2026-05-06 21:45 -14.43740 -68.18956 33412 ft 484 kts 20°
2026-05-06 21:46 -14.40617 -68.17653 33573 ft 484 kts 20°
2026-05-06 21:46 -14.37499 -68.16353 33744 ft 483 kts 20°
2026-05-06 21:46 -14.34380 -68.15052 33914 ft 483 kts 20°
2026-05-06 21:46 -14.31265 -68.13753 34065 ft 483 kts 20°
2026-05-06 21:47 -14.28111 -68.12583 34197 ft 481 kts 14°
2026-05-06 21:47 -14.24848 -68.11864 34314 ft 478 kts
2026-05-06 21:47 -14.21543 -68.11513 34464 ft 477 kts
2026-05-06 21:47 -14.18275 -68.11301 34601 ft 476 kts
2026-05-06 21:48 -14.14921 -68.11151 34736 ft 476 kts
2026-05-06 21:48 -14.11657 -68.11024 34844 ft 476 kts
2026-05-06 21:48 -14.05026 -68.10748 34936 ft 479 kts
2026-05-06 21:49 -13.98350 -68.10427 34940 ft 480 kts
2026-05-06 21:49 -13.91682 -68.10083 34938 ft 479 kts
2026-05-06 21:50 -13.85028 -68.09738 34928 ft 479 kts
2026-05-06 21:50 -13.78372 -68.09394 34926 ft 479 kts
2026-05-06 21:51 -13.71721 -68.09053 34923 ft 479 kts
2026-05-06 21:51 -13.65062 -68.08712 34923 ft 479 kts
2026-05-06 21:52 -13.58409 -68.08371 34923 ft 479 kts
2026-05-06 21:52 -13.51751 -68.08030 34924 ft 479 kts
2026-05-06 21:53 -13.45097 -68.07689 34922 ft 479 kts
2026-05-06 21:53 -13.38440 -68.07349 34920 ft 479 kts
2026-05-06 21:54 -13.31783 -68.07008 34922 ft 479 kts
2026-05-06 21:54 -13.25128 -68.06668 34923 ft 479 kts
2026-05-06 21:55 -13.18469 -68.06328 34926 ft 479 kts
2026-05-06 21:55 -13.11814 -68.05988 34923 ft 479 kts
2026-05-06 21:56 -13.05157 -68.05649 34922 ft 479 kts
2026-05-06 21:56 -12.98505 -68.05309 34922 ft 479 kts
2026-05-06 21:57 -12.91893 -68.04972 34929 ft 479 kts
2026-05-06 21:57 -12.85239 -68.04633 34926 ft 479 kts
2026-05-06 21:58 -12.78588 -68.04295 34926 ft 478 kts
2026-05-06 21:58 -12.71937 -68.03956 34931 ft 478 kts
2026-05-06 21:59 -12.65290 -68.03618 34925 ft 478 kts
2026-05-06 21:59 -12.58641 -68.03280 34925 ft 478 kts
2026-05-06 22:00 -12.51992 -68.02942 34931 ft 479 kts
2026-05-06 22:00 -12.45333 -68.02604 34926 ft 479 kts
2026-05-06 22:01 -12.38669 -68.02265 34925 ft 479 kts
2026-05-06 22:01 -12.32003 -68.01927 34929 ft 480 kts
2026-05-06 22:02 -12.25338 -68.01589 34925 ft 480 kts
2026-05-06 22:02 -12.18675 -68.01252 34930 ft 479 kts
2026-05-06 22:03 -12.12017 -68.00915 34927 ft 479 kts
2026-05-06 22:03 -12.05368 -68.00579 34929 ft 478 kts
2026-05-06 22:04 -11.98719 -68.00234 34933 ft 478 kts
2026-05-06 22:04 -11.92065 -67.99890 34935 ft 478 kts
2026-05-06 22:05 -11.85418 -67.99549 34935 ft 478 kts
2026-05-06 22:05 -11.78785 -67.99209 34931 ft 477 kts
2026-05-06 22:06 -11.72159 -67.98870 34935 ft 476 kts
2026-05-06 22:06 -11.65587 -67.98533 34935 ft 476 kts
2026-05-06 22:07 -11.58966 -67.98195 34933 ft 476 kts
2026-05-06 22:07 -11.52341 -67.97856 34936 ft 476 kts
2026-05-06 22:08 -11.45723 -67.97518 34939 ft 476 kts
2026-05-06 22:08 -11.39111 -67.97180 34939 ft 476 kts
2026-05-06 22:09 -11.32495 -67.96842 34936 ft 476 kts
2026-05-06 22:09 -11.25879 -67.96505 34936 ft 476 kts
2026-05-06 22:10 -11.19259 -67.96167 34938 ft 476 kts
2026-05-06 22:10 -11.12637 -67.95829 34937 ft 477 kts
2026-05-06 22:11 -11.06009 -67.95492 34932 ft 477 kts
2026-05-06 22:11 -10.99374 -67.95154 34933 ft 477 kts
2026-05-06 22:12 -10.92738 -67.94816 34937 ft 477 kts
2026-05-06 22:12 -10.86106 -67.94478 34935 ft 477 kts
2026-05-06 22:13 -10.79470 -67.94140 34936 ft 477 kts
2026-05-06 22:13 -10.72839 -67.93803 34934 ft 477 kts
2026-05-06 22:14 -10.66202 -67.93466 34934 ft 477 kts
2026-05-06 22:14 -10.59614 -67.93163 34932 ft 477 kts
2026-05-06 22:15 -10.52975 -67.92929 34936 ft 477 kts
2026-05-06 22:15 -10.46337 -67.92699 34936 ft 477 kts
2026-05-06 22:16 -10.39709 -67.92460 34932 ft 476 kts
2026-05-06 22:16 -10.33083 -67.92216 34931 ft 476 kts
2026-05-06 22:17 -10.26461 -67.91971 34934 ft 476 kts
2026-05-06 22:17 -10.19837 -67.91726 34934 ft 476 kts
2026-05-06 22:18 -10.13208 -67.91482 34933 ft 477 kts
2026-05-06 22:18 -10.06566 -67.91237 34937 ft 478 kts
2026-05-06 22:19 -9.99914 -67.90992 34939 ft 478 kts
2026-05-06 22:19 -9.93264 -67.90747 34939 ft 478 kts
2026-05-06 22:20 -9.86626 -67.90296 34942 ft 478 kts
2026-05-06 22:20 -9.80046 -67.89254 34938 ft 478 kts
2026-05-06 22:21 -9.73489 -67.88109 34935 ft 478 kts 10°
2026-05-06 22:21 -9.66937 -67.86950 34939 ft 478 kts 10°
2026-05-06 22:22 -9.60383 -67.85802 34939 ft 478 kts
2026-05-06 22:22 -9.53827 -67.84660 34939 ft 478 kts
2026-05-06 22:23 -9.47269 -67.83521 34943 ft 478 kts
2026-05-06 22:23 -9.40757 -67.82390 34944 ft 478 kts 10°
2026-05-06 22:24 -9.34202 -67.81251 34941 ft 478 kts 10°
2026-05-06 22:24 -9.27641 -67.80112 34942 ft 478 kts 10°
2026-05-06 22:25 -9.21087 -67.78974 34939 ft 478 kts 10°
2026-05-06 22:25 -9.14529 -67.77840 34938 ft 478 kts 10°
2026-05-06 22:26 -9.07970 -67.76702 34941 ft 478 kts
2026-05-06 22:26 -9.01403 -67.75559 34941 ft 479 kts
2026-05-06 22:27 -8.94834 -67.74418 34942 ft 479 kts
2026-05-06 22:27 -8.88266 -67.73279 34941 ft 479 kts
2026-05-06 22:28 -8.81701 -67.72142 34941 ft 479 kts
2026-05-06 22:28 -8.75122 -67.71002 34940 ft 479 kts
2026-05-06 22:29 -8.68550 -67.69864 34944 ft 479 kts
2026-05-06 22:29 -8.61970 -67.68724 34944 ft 479 kts
2026-05-06 22:30 -8.55395 -67.67586 34950 ft 479 kts
2026-05-06 22:30 -8.48818 -67.66449 34949 ft 479 kts
2026-05-06 22:31 -8.42248 -67.65312 34947 ft 480 kts
2026-05-06 22:31 -8.35670 -67.64175 34948 ft 480 kts
2026-05-06 22:32 -8.29087 -67.63037 34947 ft 480 kts
2026-05-06 22:32 -8.23617 -67.62092 34946 ft 480 kts
2026-05-06 22:33 -8.17032 -67.60955 34947 ft 480 kts
2026-05-06 22:33 -8.09385 -67.59634 34950 ft 480 kts
2026-05-06 22:34 -8.03870 -67.58683 34951 ft 480 kts
2026-05-06 22:34 -7.97280 -67.57545 34950 ft 480 kts
2026-05-06 22:35 -7.90689 -67.56409 34948 ft 481 kts
2026-05-06 22:35 -7.84143 -67.55280 34949 ft 481 kts
2026-05-06 22:36 -7.77548 -67.54142 34952 ft 481 kts
2026-05-06 22:36 -7.70959 -67.53007 34957 ft 480 kts
2026-05-06 22:37 -7.64378 -67.51873 34953 ft 480 kts
2026-05-06 22:37 -7.57810 -67.50742 34955 ft 479 kts
2026-05-06 22:38 -7.51224 -67.49608 34955 ft 479 kts
2026-05-06 22:38 -7.44648 -67.48476 34955 ft 479 kts
2026-05-06 22:39 -7.38069 -67.47344 34954 ft 479 kts
2026-05-06 22:39 -7.31496 -67.46213 34956 ft 480 kts
2026-05-06 22:40 -7.24919 -67.45082 34958 ft 480 kts
2026-05-06 22:40 -7.18339 -67.43951 34959 ft 480 kts
2026-05-06 22:41 -7.08521 -67.42264 34957 ft 479 kts
2026-05-06 22:42 -7.01943 -67.41134 34961 ft 479 kts 10°
2026-05-06 22:42 -6.95364 -67.40007 34958 ft 480 kts 10°
2026-05-06 22:43 -6.88777 -67.38876 34960 ft 480 kts 10°
2026-05-06 22:43 -6.82193 -67.37745 34958 ft 480 kts 10°
2026-05-06 22:44 -6.75604 -67.36615 34961 ft 480 kts 10°
2026-05-06 22:44 -6.69022 -67.35487 34958 ft 480 kts 10°
2026-05-06 22:45 -6.62434 -67.34358 34957 ft 481 kts 10°
2026-05-06 22:45 -6.55831 -67.33226 34957 ft 481 kts 10°
2026-05-06 22:46 -6.49229 -67.32095 34959 ft 481 kts 10°
2026-05-06 22:46 -6.42626 -67.30964 34961 ft 481 kts 10°
2026-05-06 22:47 -6.36029 -67.29835 34958 ft 481 kts 10°
2026-05-06 22:47 -6.29427 -67.28705 34962 ft 481 kts 11°
2026-05-06 22:48 -6.22834 -67.27577 34963 ft 480 kts 11°
2026-05-06 22:48 -6.16254 -67.26451 34964 ft 480 kts 11°
2026-05-06 22:49 -6.09673 -67.25326 34963 ft 480 kts 11°
2026-05-06 22:49 -6.03092 -67.24200 34969 ft 480 kts 11°
2026-05-06 22:50 -5.96511 -67.23076 34966 ft 480 kts 11°
2026-05-06 22:50 -5.89911 -67.21947 34966 ft 482 kts 10°
2026-05-06 22:51 -5.83334 -67.20823 34968 ft 483 kts 10°
2026-05-06 22:51 -5.76707 -67.19692 34969 ft 483 kts 10°
2026-05-06 22:52 -5.70080 -67.18560 34970 ft 483 kts 10°
2026-05-06 22:52 -5.63450 -67.17428 34970 ft 483 kts 10°
2026-05-06 22:53 -5.56822 -67.16299 34966 ft 483 kts 10°
2026-05-06 22:53 -5.50197 -67.15167 34966 ft 483 kts 11°
2026-05-06 22:54 -5.43570 -67.14034 34969 ft 483 kts 11°
2026-05-06 22:54 -5.36950 -67.12903 34968 ft 483 kts 11°
2026-05-06 22:55 -5.30316 -67.11770 34967 ft 483 kts 11°
2026-05-06 22:55 -5.23691 -67.10640 34968 ft 482 kts 10°
2026-05-06 22:56 -5.17130 -67.09521 34972 ft 481 kts 10°
2026-05-06 22:56 -5.10531 -67.08395 34972 ft 481 kts 10°
2026-05-06 22:57 -5.03937 -67.07270 34968 ft 481 kts 10°
2026-05-06 22:57 -4.97337 -67.06145 34969 ft 481 kts 10°
2026-05-06 22:58 -4.90739 -67.05021 34968 ft 481 kts 10°
2026-05-06 22:58 -4.84139 -67.03896 34968 ft 481 kts 10°
2026-05-06 22:59 -4.77535 -67.02771 34969 ft 481 kts 10°
2026-05-06 22:59 -4.70933 -67.01646 34972 ft 481 kts 10°
2026-05-06 23:00 -4.64332 -67.00522 34971 ft 481 kts 10°
2026-05-06 23:00 -4.57728 -66.99397 34974 ft 481 kts 10°
2026-05-06 23:01 -4.51127 -66.98273 34974 ft 482 kts 10°
2026-05-06 23:01 -4.44517 -66.97148 34972 ft 482 kts 10°
2026-05-06 23:02 -4.37908 -66.96023 34970 ft 482 kts 10°
2026-05-06 23:02 -4.31296 -66.94898 34971 ft 482 kts 10°
2026-05-06 23:03 -4.24681 -66.93773 34971 ft 482 kts 10°
2026-05-06 23:03 -4.18071 -66.92649 34971 ft 482 kts 10°
2026-05-06 23:04 -4.11450 -66.91522 34974 ft 483 kts 10°
2026-05-06 23:04 -4.04817 -66.90395 34973 ft 483 kts 10°
2026-05-06 23:05 -3.98187 -66.89268 34974 ft 483 kts 11°
2026-05-06 23:05 -3.91550 -66.88141 34972 ft 484 kts 11°
2026-05-06 23:06 -3.84910 -66.87013 34971 ft 484 kts 11°
2026-05-06 23:06 -3.78264 -66.85884 34972 ft 484 kts 11°
2026-05-06 23:07 -3.71623 -66.84756 34971 ft 484 kts 11°
2026-05-06 23:07 -3.64977 -66.83626 34972 ft 484 kts 11°
2026-05-06 23:08 -3.58380 -66.82504 34974 ft 484 kts 11°
2026-05-06 23:08 -3.51752 -66.81379 35243 ft 482 kts 10°
2026-05-06 23:08 -3.48448 -66.80821 35399 ft 481 kts 10°
2026-05-06 23:09 -3.45147 -66.80261 35527 ft 481 kts 10°
2026-05-06 23:09 -3.41850 -66.79701 35667 ft 481 kts 10°
2026-05-06 23:09 -3.38553 -66.79140 35812 ft 480 kts 10°
2026-05-06 23:09 -3.35263 -66.78581 35938 ft 480 kts 10°
2026-05-06 23:10 -3.31963 -66.78021 35966 ft 482 kts 10°
2026-05-06 23:10 -3.25333 -66.76896 35970 ft 482 kts 10°
2026-05-06 23:11 -3.18723 -66.75776 35972 ft 481 kts 10°
2026-05-06 23:11 -3.12118 -66.74657 35975 ft 481 kts 10°
2026-05-06 23:12 -3.05522 -66.73539 35975 ft 481 kts 10°
2026-05-06 23:12 -2.98926 -66.72421 35977 ft 481 kts 10°
2026-05-06 23:13 -2.92335 -66.71304 35972 ft 481 kts 10°
2026-05-06 23:13 -2.85740 -66.70187 35974 ft 481 kts 10°
2026-05-06 23:14 -2.79149 -66.69070 35973 ft 480 kts 10°
2026-05-06 23:14 -2.72570 -66.67956 35967 ft 479 kts 10°
2026-05-06 23:15 -2.65999 -66.66844 35966 ft 479 kts 10°
2026-05-06 23:15 -2.59432 -66.65734 35967 ft 479 kts 10°
2026-05-06 23:16 -2.52863 -66.64619 35970 ft 479 kts 10°
2026-05-06 23:16 -2.46298 -66.63504 35967 ft 479 kts 10°
2026-05-06 23:17 -2.39728 -66.62390 35969 ft 479 kts 10°
2026-05-06 23:17 -2.33204 -66.61284 35971 ft 479 kts 10°
2026-05-06 23:18 -2.26643 -66.60173 35966 ft 479 kts 10°
2026-05-06 23:18 -2.20073 -66.59060 35971 ft 479 kts 10°
2026-05-06 23:19 -2.13505 -66.57952 35970 ft 479 kts 10°
2026-05-06 23:19 -2.06936 -66.56838 35974 ft 479 kts 10°
2026-05-06 23:20 -2.00359 -66.55722 35968 ft 480 kts 10°
2026-05-06 23:20 -1.93861 -66.54236 35968 ft 479 kts 21°
2026-05-06 23:21 -1.88108 -66.50981 35969 ft 476 kts 40°
2026-05-06 23:21 -1.83453 -66.46279 35969 ft 477 kts 48°
2026-05-06 23:22 -1.79060 -66.41298 35969 ft 478 kts 49°
2026-05-06 23:22 -1.74689 -66.36294 35966 ft 478 kts 49°
2026-05-06 23:23 -1.70291 -66.31312 35969 ft 478 kts 49°
2026-05-06 23:23 -1.66620 -66.27181 35966 ft 478 kts 49°
2026-05-06 23:24 -1.61479 -66.21404 35969 ft 478 kts 49°
2026-05-06 23:24 -1.57059 -66.16437 35968 ft 478 kts 49°
2026-05-06 23:25 -1.53357 -66.12277 35968 ft 478 kts 49°
2026-05-06 23:25 -1.48941 -66.07313 35972 ft 478 kts 49°
2026-05-06 23:26 -1.44526 -66.02350 35970 ft 478 kts 49°
2026-05-06 23:26 -1.40135 -65.97415 35974 ft 478 kts 49°
2026-05-06 23:27 -1.35718 -65.92451 35973 ft 479 kts 49°
2026-05-06 23:27 -1.31286 -65.87470 35972 ft 480 kts 49°
2026-05-06 23:28 -1.26847 -65.82482 35969 ft 480 kts 49°
2026-05-06 23:28 -1.22409 -65.77495 35971 ft 480 kts 49°
2026-05-06 23:29 -1.17972 -65.72511 35975 ft 480 kts 49°
2026-05-06 23:29 -1.13531 -65.67520 35974 ft 480 kts 49°
2026-05-06 23:30 -1.09093 -65.62534 35974 ft 480 kts 49°
2026-05-06 23:30 -1.04655 -65.57548 35975 ft 481 kts 49°
2026-05-06 23:31 -1.00208 -65.52552 35973 ft 482 kts 49°
2026-05-06 23:31 -0.95746 -65.47546 35971 ft 482 kts 49°
2026-05-06 23:32 -0.91289 -65.42545 35974 ft 482 kts 49°
2026-05-06 23:32 -0.86830 -65.37541 35974 ft 482 kts 49°
2026-05-06 23:33 -0.82340 -65.32566 35971 ft 482 kts 46°
2026-05-06 23:33 -0.77597 -65.27890 35972 ft 482 kts 44°
2026-05-06 23:34 -0.72744 -65.23251 35968 ft 483 kts 44°
2026-05-06 23:34 -0.67924 -65.18573 35972 ft 483 kts 45°
2026-05-06 23:35 -0.63133 -65.13875 35973 ft 482 kts 45°
2026-05-06 23:35 -0.58366 -65.09174 35972 ft 481 kts 45°
2026-05-06 23:36 -0.53597 -65.04472 35970 ft 481 kts 45°
2026-05-06 23:36 -0.48828 -64.99776 35972 ft 482 kts 45°
2026-05-06 23:37 -0.44057 -64.95080 35975 ft 481 kts 45°
2026-05-06 23:37 -0.39285 -64.90383 35974 ft 481 kts 45°
2026-05-06 23:38 -0.34511 -64.85685 35972 ft 481 kts 45°
2026-05-06 23:38 -0.29742 -64.80991 35972 ft 482 kts 45°
2026-05-06 23:39 -0.24970 -64.76295 35974 ft 482 kts 45°
2026-05-06 23:39 -0.20228 -64.71627 35972 ft 481 kts 45°
2026-05-06 23:40 -0.15459 -64.66933 35972 ft 481 kts 45°
2026-05-06 23:40 -0.10685 -64.62234 35971 ft 481 kts 45°
2026-05-06 23:41 -0.05916 -64.57541 35975 ft 481 kts 45°
2026-05-06 23:41 -0.01143 -64.52844 35978 ft 481 kts 45°
2026-05-06 23:42 0.03629 -64.48147 35970 ft 481 kts 45°
2026-05-06 23:42 0.08395 -64.43457 35971 ft 481 kts 45°
2026-05-06 23:43 0.13200 -64.38795 35975 ft 481 kts 44°
2026-05-06 23:43 0.18024 -64.34153 35974 ft 481 kts 44°
2026-05-06 23:44 0.22838 -64.29515 35975 ft 481 kts 44°
2026-05-06 23:44 0.27653 -64.24868 35974 ft 481 kts 44°
2026-05-06 23:45 0.32463 -64.20223 35971 ft 481 kts 44°
2026-05-06 23:45 0.37271 -64.15579 35972 ft 481 kts 44°
2026-05-06 23:46 0.42088 -64.10928 35975 ft 481 kts 44°
2026-05-06 23:46 0.46901 -64.06279 35975 ft 481 kts 44°
2026-05-06 23:47 0.51716 -64.01629 35974 ft 481 kts 44°
2026-05-06 23:47 0.56527 -63.96983 35972 ft 481 kts 44°
2026-05-06 23:48 0.61339 -63.92335 35971 ft 481 kts 44°
2026-05-06 23:48 0.66146 -63.87692 35971 ft 481 kts 44°
2026-05-06 23:49 0.70954 -63.83049 35975 ft 480 kts 44°
2026-05-06 23:49 0.75754 -63.78412 35974 ft 479 kts 44°
2026-05-06 23:50 0.80518 -63.73810 35978 ft 479 kts 44°
2026-05-06 23:50 0.87716 -63.66857 35985 ft 480 kts 44°
2026-05-06 23:51 0.92519 -63.62217 35985 ft 480 kts 44°
2026-05-06 23:51 0.97324 -63.57575 35991 ft 480 kts 44°
2026-05-06 23:52 1.02128 -63.52935 35991 ft 480 kts 44°
2026-05-06 23:52 1.06924 -63.48289 35993 ft 480 kts 45°
2026-05-06 23:53 1.11702 -63.43635 35996 ft 480 kts 45°
2026-05-06 23:53 1.16489 -63.38972 35997 ft 481 kts 44°
2026-05-06 23:54 1.21291 -63.34299 35990 ft 482 kts 44°
2026-05-06 23:54 1.26113 -63.29647 35990 ft 482 kts 44°
2026-05-06 23:55 1.30943 -63.24999 35985 ft 482 kts 44°
2026-05-06 23:55 1.35770 -63.20349 35986 ft 482 kts 44°
2026-05-06 23:56 1.40598 -63.15696 35980 ft 482 kts 44°
2026-05-06 23:56 1.45420 -63.11048 35983 ft 482 kts 44°
2026-05-06 23:57 1.50246 -63.06395 35986 ft 482 kts 44°
2026-05-06 23:57 1.55068 -63.01746 35985 ft 482 kts 44°
2026-05-06 23:58 1.59892 -62.97094 35985 ft 482 kts 44°
2026-05-06 23:58 1.64716 -62.92442 35985 ft 482 kts 44°
2026-05-06 23:59 1.69535 -62.87795 35989 ft 482 kts 44°
2026-05-06 23:59 1.74363 -62.83138 35988 ft 482 kts 45°
2026-05-07 00:00 1.79155 -62.78516 35990 ft 482 kts 45°
2026-05-07 00:00 1.83200 -62.74615 35991 ft 482 kts 45°
2026-05-07 00:01 1.88845 -62.69169 35987 ft 482 kts 45°
2026-05-07 00:01 1.93638 -62.64545 35988 ft 482 kts 45°
2026-05-07 00:02 1.98464 -62.59889 35988 ft 482 kts 45°
2026-05-07 00:02 2.03289 -62.55233 35987 ft 482 kts 45°
2026-05-07 00:03 2.08115 -62.50576 35984 ft 482 kts 44°
2026-05-07 00:03 2.12947 -62.45913 35985 ft 482 kts 44°
2026-05-07 00:04 2.17774 -62.41254 35988 ft 482 kts 44°
2026-05-07 00:04 2.22602 -62.36594 35985 ft 482 kts 44°
2026-05-07 00:05 2.27446 -62.31952 35988 ft 482 kts 44°
2026-05-07 00:05 2.32303 -62.27318 35989 ft 483 kts 44°
2026-05-07 00:06 2.37150 -62.22675 35987 ft 482 kts 44°
2026-05-07 00:06 2.41994 -62.18024 35988 ft 482 kts 44°
2026-05-07 00:07 2.46833 -62.13380 35985 ft 482 kts 44°
2026-05-07 00:07 2.51677 -62.08732 35985 ft 482 kts 44°
2026-05-07 00:08 2.56519 -62.04087 35982 ft 482 kts 44°
2026-05-07 00:08 2.61329 -61.99471 35982 ft 483 kts 44°
2026-05-07 00:09 2.66176 -61.94819 35985 ft 482 kts 44°
2026-05-07 00:09 2.71017 -61.90173 35981 ft 483 kts 44°
2026-05-07 00:10 2.75879 -61.85506 35983 ft 485 kts 44°
2026-05-07 00:10 2.80749 -61.80831 35983 ft 485 kts 44°
2026-05-07 00:11 2.85620 -61.76160 35983 ft 485 kts 44°
2026-05-07 00:11 2.90491 -61.71478 35982 ft 485 kts 44°
2026-05-07 00:12 2.95362 -61.66803 35979 ft 485 kts 44°
2026-05-07 00:12 3.00229 -61.62127 35980 ft 485 kts 44°
2026-05-07 00:13 3.04273 -61.58242 35977 ft 485 kts 44°
2026-05-07 00:13 3.09143 -61.53565 35972 ft 485 kts 44°
2026-05-07 00:14 3.14012 -61.48888 35974 ft 485 kts 44°
2026-05-07 00:14 3.18886 -61.44214 35969 ft 485 kts 44°
2026-05-07 00:15 3.23754 -61.39532 35968 ft 485 kts 44°
2026-05-07 00:15 3.28621 -61.34852 35969 ft 485 kts 44°
2026-05-07 00:16 3.33491 -61.30170 35970 ft 485 kts 44°
2026-05-07 00:16 3.38364 -61.25486 35966 ft 485 kts 44°
2026-05-07 00:17 3.43226 -61.20812 35966 ft 485 kts 44°
2026-05-07 00:17 3.48094 -61.16132 35961 ft 485 kts 44°
2026-05-07 00:18 3.52963 -61.11450 35960 ft 485 kts 44°
2026-05-07 00:18 3.57824 -61.06774 35961 ft 485 kts 44°
2026-05-07 00:19 3.62692 -61.02091 35957 ft 485 kts 43°
2026-05-07 00:19 3.67552 -60.97413 36179 ft 484 kts 43°
2026-05-07 00:20 3.72365 -60.92653 36302 ft 487 kts 44°
2026-05-07 00:20 3.74758 -60.90266 36483 ft 486 kts 44°
2026-05-07 00:20 3.77153 -60.87873 36623 ft 485 kts 44°
2026-05-07 00:21 3.79538 -60.85488 36759 ft 485 kts 44°
2026-05-07 00:21 3.81928 -60.83104 36892 ft 485 kts 44°
2026-05-07 00:21 3.86725 -60.78331 36958 ft 487 kts 44°
2026-05-07 00:22 3.91556 -60.73592 36956 ft 485 kts 43°
2026-05-07 00:22 3.96382 -60.68925 36959 ft 486 kts 43°
2026-05-07 00:23 4.01273 -60.64190 36961 ft 486 kts 43°
2026-05-07 00:23 4.06095 -60.59510 36962 ft 486 kts 43°
2026-05-07 00:24 4.10949 -60.54792 36961 ft 486 kts 43°
2026-05-07 00:24 4.15801 -60.50075 36971 ft 486 kts 43°
2026-05-07 00:25 4.20657 -60.45354 36973 ft 486 kts 43°
2026-05-07 00:25 4.25504 -60.40642 36984 ft 486 kts 43°
2026-05-07 00:26 4.30353 -60.35926 36991 ft 486 kts 43°
2026-05-07 00:26 4.35203 -60.31208 36991 ft 486 kts 43°
2026-05-07 00:27 4.40063 -60.26480 37004 ft 487 kts 43°
2026-05-07 00:27 4.44919 -60.21755 37004 ft 487 kts 43°
2026-05-07 00:28 4.49780 -60.17025 37016 ft 487 kts 43°
2026-05-07 00:28 4.54633 -60.12303 37016 ft 486 kts 43°
2026-05-07 00:29 4.59518 -60.07613 37018 ft 486 kts 42°
2026-05-07 00:30 4.69298 -59.98268 37036 ft 486 kts 42°
2026-05-07 00:30 4.74185 -59.93588 37037 ft 486 kts 42°
2026-05-07 00:31 4.79070 -59.88907 37048 ft 486 kts 43°
2026-05-07 00:31 4.83950 -59.84230 37049 ft 486 kts 43°
2026-05-07 00:32 4.88803 -59.79577 37053 ft 486 kts 43°
2026-05-07 00:32 4.93689 -59.74893 37053 ft 486 kts 43°
2026-05-07 00:33 4.98571 -59.70211 37051 ft 485 kts 43°
2026-05-07 00:33 5.03447 -59.65534 37053 ft 485 kts 43°
2026-05-07 00:34 5.08323 -59.60855 37054 ft 485 kts 43°
2026-05-07 00:34 5.13199 -59.56177 37043 ft 486 kts 43°
2026-05-07 00:35 5.18089 -59.51483 37045 ft 487 kts 42°
2026-05-07 00:35 5.22983 -59.46786 37033 ft 487 kts 42°
2026-05-07 00:36 5.27882 -59.42097 37030 ft 487 kts 42°
2026-05-07 00:36 5.32788 -59.37403 37024 ft 488 kts 42°
2026-05-07 00:37 5.37693 -59.32706 37018 ft 488 kts 42°
2026-05-07 00:37 5.42604 -59.28004 37018 ft 488 kts 42°
2026-05-07 00:38 5.47517 -59.23299 37011 ft 488 kts 42°
2026-05-07 00:38 5.52429 -59.18593 37011 ft 488 kts 42°
2026-05-07 00:39 5.57340 -59.13888 37003 ft 488 kts 42°
2026-05-07 00:39 5.62260 -59.09172 37004 ft 489 kts 42°
2026-05-07 00:40 5.67182 -59.04454 37003 ft 489 kts 42°
2026-05-07 00:40 5.72106 -58.99732 37004 ft 490 kts 42°
2026-05-07 00:41 5.76997 -58.95041 37001 ft 490 kts 42°
2026-05-07 00:41 5.81925 -58.90313 37001 ft 490 kts 42°
2026-05-07 00:42 5.86886 -58.85553 37007 ft 490 kts 43°
2026-05-07 00:42 5.91779 -58.80856 37001 ft 490 kts 43°
2026-05-07 00:43 5.96730 -58.76102 37001 ft 489 kts 43°
2026-05-07 00:43 6.01656 -58.71371 37002 ft 489 kts 43°
2026-05-07 00:44 6.06574 -58.66647 37001 ft 489 kts 43°
2026-05-07 00:44 6.11487 -58.61973 37002 ft 489 kts 42°
2026-05-07 00:45 6.16456 -58.57302 37001 ft 489 kts 42°
2026-05-07 00:45 6.21427 -58.52628 37002 ft 489 kts 42°
2026-05-07 00:46 6.26395 -58.47946 36999 ft 489 kts 42°
2026-05-07 00:46 6.31361 -58.43261 36999 ft 490 kts 42°
2026-05-07 00:47 6.36335 -58.38566 36996 ft 490 kts 42°
2026-05-07 00:47 6.41308 -58.33871 36994 ft 490 kts 42°
2026-05-07 00:48 6.46281 -58.29175 36997 ft 490 kts 42°
2026-05-07 00:48 6.51259 -58.24492 36993 ft 490 kts 41°
2026-05-07 00:49 6.56386 -58.19980 36994 ft 489 kts 39°
2026-05-07 00:49 6.61567 -58.15529 36994 ft 490 kts 39°
2026-05-07 00:50 6.66740 -58.11046 36995 ft 491 kts 40°
2026-05-07 00:50 6.71896 -58.06544 36993 ft 491 kts 40°
2026-05-07 00:51 6.77048 -58.02032 36993 ft 491 kts 40°
2026-05-07 00:51 6.82201 -57.97518 36994 ft 491 kts 40°
2026-05-07 00:52 6.87361 -57.92999 36995 ft 492 kts 40°
2026-05-07 00:52 6.92523 -57.88477 36997 ft 492 kts 40°
2026-05-07 00:53 6.97689 -57.83951 37000 ft 493 kts 40°
2026-05-07 00:53 7.02828 -57.79446 37001 ft 493 kts 40°
2026-05-07 00:54 7.07994 -57.74917 37006 ft 493 kts 40°
2026-05-07 00:54 7.13168 -57.70379 37007 ft 493 kts 40°
2026-05-07 00:55 7.18339 -57.65842 37007 ft 493 kts 40°
2026-05-07 00:55 7.23521 -57.61295 37007 ft 494 kts 40°
2026-05-07 00:56 7.28701 -57.56747 37006 ft 494 kts 40°
2026-05-07 00:56 7.33883 -57.52197 37007 ft 494 kts 40°
2026-05-07 00:57 7.39070 -57.47657 37008 ft 494 kts 40°
2026-05-07 00:57 7.44268 -57.43128 37007 ft 494 kts 40°
2026-05-07 00:58 7.49467 -57.38597 37007 ft 494 kts 40°
2026-05-07 00:58 7.54665 -57.34063 37006 ft 495 kts 40°
2026-05-07 00:59 7.62475 -57.27246 37007 ft 495 kts 40°
2026-05-07 01:00 7.66799 -57.23470 37007 ft 495 kts 40°
2026-05-07 01:00 7.72006 -57.18921 37009 ft 495 kts 40°
2026-05-07 01:01 7.77210 -57.14375 37012 ft 495 kts 40°
2026-05-07 01:01 7.82410 -57.09829 37011 ft 495 kts 40°
2026-05-07 01:02 7.87613 -57.05280 37009 ft 495 kts 40°
2026-05-07 01:02 7.92816 -57.00729 37009 ft 495 kts 40°
2026-05-07 01:03 7.98025 -56.96177 37010 ft 495 kts 40°
2026-05-07 01:03 8.03226 -56.91623 37011 ft 495 kts 40°
2026-05-07 01:04 8.08425 -56.87069 37010 ft 495 kts 40°
2026-05-07 01:04 8.13622 -56.82516 37009 ft 495 kts 40°
2026-05-07 01:05 8.18823 -56.77959 37009 ft 495 kts 40°
2026-05-07 01:05 8.24030 -56.73396 37010 ft 496 kts 40°
2026-05-07 01:06 8.29203 -56.68860 37011 ft 496 kts 40°
2026-05-07 01:06 8.34411 -56.64293 37009 ft 496 kts 40°
2026-05-07 01:07 8.39622 -56.59721 37008 ft 496 kts 40°
2026-05-07 01:07 8.44832 -56.55148 37010 ft 496 kts 40°
2026-05-07 01:08 8.50046 -56.50570 37014 ft 497 kts 40°
2026-05-07 01:08 8.55262 -56.45988 37016 ft 497 kts 40°
2026-05-07 01:09 8.60476 -56.41406 37014 ft 496 kts 40°
2026-05-07 01:09 8.65687 -56.36826 37015 ft 497 kts 40°
2026-05-07 01:10 8.70897 -56.32245 37019 ft 497 kts 40°
2026-05-07 01:10 8.76113 -56.27656 37021 ft 498 kts 40°
2026-05-07 01:11 8.81340 -56.23057 37020 ft 498 kts 40°
2026-05-07 01:11 8.86560 -56.18460 37022 ft 497 kts 40°
2026-05-07 01:12 8.91777 -56.13865 37019 ft 497 kts 40°
2026-05-07 01:12 8.96988 -56.09275 37022 ft 497 kts 40°
2026-05-07 01:13 9.02200 -56.04681 37021 ft 497 kts 40°
2026-05-07 01:13 9.07407 -56.00090 37023 ft 497 kts 40°
2026-05-07 01:14 9.12516 -55.95369 37027 ft 497 kts 44°
2026-05-07 01:14 9.17347 -55.90429 37027 ft 497 kts 45°
2026-05-07 01:15 9.22203 -55.85442 37025 ft 497 kts 44°
2026-05-07 01:15 9.27097 -55.80495 37025 ft 497 kts 44°
2026-05-07 01:16 9.32019 -55.75561 37026 ft 498 kts 44°
2026-05-07 01:16 9.36947 -55.70627 37027 ft 499 kts 44°
2026-05-07 01:17 9.41874 -55.65687 37028 ft 498 kts 44°
2026-05-07 01:17 9.46792 -55.60753 37028 ft 498 kts 44°
2026-05-07 01:18 9.51709 -55.55816 37034 ft 498 kts 44°
2026-05-07 01:18 9.56628 -55.50876 37034 ft 498 kts 44°
2026-05-07 01:19 9.61553 -55.45927 37034 ft 499 kts 44°
2026-05-07 01:19 9.66478 -55.40977 37039 ft 499 kts 44°
2026-05-07 01:20 9.71398 -55.36029 37034 ft 498 kts 44°
2026-05-07 01:20 9.76313 -55.31084 37036 ft 498 kts 44°
2026-05-07 01:21 9.81229 -55.26136 37038 ft 498 kts 44°
2026-05-07 01:21 9.86145 -55.21186 37039 ft 499 kts 44°
2026-05-07 01:22 9.91071 -55.16223 37035 ft 499 kts 44°
2026-05-07 01:22 9.95961 -55.11294 37039 ft 498 kts 44°
2026-05-07 01:23 10.00870 -55.06344 37041 ft 498 kts 44°
2026-05-07 01:23 10.05778 -55.01393 37042 ft 497 kts 44°
2026-05-07 01:24 10.10688 -54.96438 37042 ft 498 kts 44°
2026-05-07 01:24 10.15600 -54.91479 37043 ft 498 kts 44°
2026-05-07 01:25 10.20512 -54.86516 37049 ft 498 kts 44°
2026-05-07 01:25 10.25419 -54.81557 37048 ft 497 kts 44°
2026-05-07 01:26 10.30320 -54.76602 37048 ft 497 kts 44°
2026-05-07 01:26 10.35216 -54.71649 37048 ft 497 kts 44°
2026-05-07 01:27 10.40118 -54.66689 37049 ft 497 kts 44°
2026-05-07 01:27 10.45016 -54.61730 37048 ft 497 kts 44°
2026-05-07 01:28 10.49913 -54.56769 37052 ft 497 kts 44°
2026-05-07 01:28 10.54804 -54.51812 37050 ft 497 kts 44°
2026-05-07 01:29 10.59692 -54.46856 37053 ft 497 kts 44°
2026-05-07 01:29 10.64583 -54.41894 37051 ft 497 kts 44°
2026-05-07 01:30 10.69439 -54.36966 37056 ft 497 kts 44°
2026-05-07 01:30 10.74328 -54.32001 37060 ft 497 kts 44°
2026-05-07 01:31 10.79214 -54.27037 37051 ft 496 kts 44°
2026-05-07 01:31 10.84091 -54.22080 37053 ft 496 kts 44°
2026-05-07 01:32 10.88970 -54.17119 37054 ft 496 kts 44°
2026-05-07 01:32 10.93851 -54.12152 37060 ft 496 kts 44°
2026-05-07 01:33 10.98725 -54.07191 37055 ft 496 kts 44°
2026-05-07 01:33 11.03603 -54.02224 37051 ft 495 kts 44°
2026-05-07 01:34 11.08472 -53.97263 37053 ft 495 kts 44°
2026-05-07 01:34 11.13340 -53.92300 37056 ft 496 kts 44°
2026-05-07 01:35 11.18213 -53.87330 37055 ft 496 kts 44°
2026-05-07 01:35 11.23082 -53.82362 37057 ft 496 kts 44°
2026-05-07 01:36 11.27951 -53.77390 37058 ft 495 kts 44°
2026-05-07 01:36 11.32820 -53.72416 37059 ft 496 kts 44°
2026-05-07 01:37 11.37696 -53.67433 37065 ft 497 kts 44°
2026-05-07 01:37 11.42575 -53.62445 37062 ft 497 kts 44°
2026-05-07 01:38 11.47418 -53.57490 37061 ft 497 kts 44°
2026-05-07 01:38 11.52292 -53.52501 37068 ft 497 kts 44°
2026-05-07 01:39 11.57169 -53.47507 37066 ft 497 kts 44°
2026-05-07 01:39 11.62048 -53.42507 37067 ft 497 kts 44°
2026-05-07 01:40 11.66921 -53.37511 37066 ft 497 kts 44°
2026-05-07 01:40 11.71792 -53.32514 37067 ft 497 kts 44°
2026-05-07 01:41 11.76667 -53.27512 37067 ft 497 kts 44°
2026-05-07 01:41 11.81539 -53.22509 37067 ft 497 kts 44°
2026-05-07 01:42 11.86411 -53.17504 37070 ft 497 kts 44°
2026-05-07 01:42 11.91283 -53.12496 37070 ft 497 kts 44°
2026-05-07 01:43 11.96151 -53.07489 37072 ft 497 kts 44°
2026-05-07 01:43 12.01022 -53.02476 37072 ft 497 kts 44°
2026-05-07 01:44 12.05884 -52.97470 37069 ft 496 kts 44°
2026-05-07 01:44 12.10744 -52.92464 37072 ft 496 kts 44°
2026-05-07 01:45 12.15567 -52.87493 37071 ft 496 kts 44°
2026-05-07 01:45 12.20420 -52.82488 37069 ft 496 kts 44°
2026-05-07 01:46 12.25272 -52.77481 37074 ft 496 kts 44°
2026-05-07 01:46 12.30126 -52.72469 37073 ft 496 kts 45°
2026-05-07 01:47 12.34979 -52.67456 37074 ft 496 kts 45°
2026-05-07 01:47 12.39829 -52.62444 37075 ft 496 kts 45°
2026-05-07 01:48 12.44676 -52.57431 37077 ft 496 kts 45°
2026-05-07 01:48 12.49527 -52.52411 37078 ft 496 kts 45°
2026-05-07 01:49 12.54378 -52.47389 37080 ft 496 kts 44°
2026-05-07 01:49 12.59225 -52.42367 37078 ft 496 kts 45°
2026-05-07 01:50 12.64074 -52.37341 37081 ft 496 kts 44°
2026-05-07 01:50 12.68103 -52.33163 37083 ft 496 kts 45°
2026-05-07 01:51 12.72954 -52.28130 37080 ft 496 kts 45°
2026-05-07 01:51 12.78583 -52.22285 37082 ft 496 kts 45°
2026-05-07 01:52 12.83421 -52.17258 37083 ft 495 kts 45°
2026-05-07 01:52 12.87474 -52.13046 37079 ft 495 kts 45°
2026-05-07 01:53 12.92310 -52.08016 37088 ft 495 kts 45°
2026-05-07 01:53 12.97146 -52.02984 37086 ft 495 kts 45°
2026-05-07 01:54 13.02508 -51.98623 37090 ft 493 kts 31°
2026-05-07 01:54 13.08358 -51.95048 37085 ft 492 kts 28°
2026-05-07 01:55 13.14309 -51.91595 37088 ft 492 kts 28°
2026-05-07 01:55 13.20271 -51.88143 37087 ft 492 kts 28°
2026-05-07 01:56 13.26223 -51.84673 37089 ft 492 kts 28°
2026-05-07 01:56 13.32170 -51.81190 37092 ft 492 kts 28°
2026-05-07 01:57 13.38106 -51.77709 37089 ft 492 kts 28°
2026-05-07 01:57 13.44044 -51.74226 37090 ft 491 kts 28°
2026-05-07 01:58 13.49978 -51.70743 37088 ft 491 kts 28°
2026-05-07 01:58 13.55911 -51.67261 37088 ft 491 kts 28°
2026-05-07 01:59 13.61846 -51.63774 37087 ft 491 kts 29°
2026-05-07 01:59 13.67776 -51.60289 37091 ft 491 kts 29°
2026-05-07 02:00 13.73707 -51.56800 37090 ft 491 kts 28°
2026-05-07 02:00 13.79638 -51.53309 37096 ft 491 kts 28°
2026-05-07 02:01 13.85562 -51.49821 37093 ft 491 kts 29°
2026-05-07 02:01 13.91489 -51.46329 37091 ft 491 kts 29°
2026-05-07 02:02 13.97410 -51.42839 37093 ft 491 kts 29°
2026-05-07 02:02 14.03291 -51.39370 37092 ft 490 kts 29°